Regional Weather Roundup
Issued by NWS

Home | Current Version | Previous Version | Text Only | Print | Product List | Glossary On
Versions: 1 2 3 4 5 6 7 8 9 10 11 12 13 14 15 16 17 18 19 20 21 22 23 24 25 26 27 28 29 30 31 32 33 34 35 36 37 38 39 40 41 42 43 44 45 46 47 48 49 50
000
ASUS43 KMKX 250120
RWRWI

WISCONSIN REGIONAL WEATHER ROUNDUP
NATIONAL WEATHER SERVICE MILWAUKEE/SULLIVAN WI
800 PM CDT WED MAY 24 2017

NOTE: "FAIR" INDICATES FEW OR NO CLOUDS BELOW 12,000 FEET WITH NO
SIGNIFICANT WEATHER AND/OR OBSTRUCTIONS TO VISIBILITY.

WIZ001-002-006>008-014>016-023>028-250200-
NORTHWEST WISCONSIN

CITY           SKY/WX    TMP DP  RH WIND       PRES   REMARKS
SUPERIOR ARPT  NOT AVBL
ASHLAND        CLEAR     47  41  80 NE8       29.76S
HAYWARD        CLOUDY    56  45  66 NE6       29.73R
SIREN          CLOUDY    58  44  58 CALM      29.72R
CUMBERLAND     CLOUDY    55  45  67 NE5       29.71S
RICE LAKE      CLOUDY    58  46  65 E8        29.72S
CHETEK         CLOUDY    57  48  71 E6        29.71S
LADYSMITH      CLOUDY    56  47  72 E7        29.74R
EAU CLAIRE     PTCLDY    56  48  74 E5        29.70R
MENOMONIE      CLOUDY    58  49  70 E8        29.70S
NEW RICHMOND   MOCLDY    58  45  60 NE3       29.71R
OSCEOLA        MOCLDY    59  45  60 NE3       29.73S
$$

WIZ003>005-009-010-017-018-250200-
NORTH CENTRAL WISCONSIN

CITY           SKY/WX    TMP DP  RH WIND       PRES   REMARKS
MANITOWISH WTR CLOUDY    53  48  84 NE5       29.73F
ARBOR VITAE    CLOUDY    57  50  77 NE6       29.73R
WOODRUFF       CLOUDY    57  50  77 NE6       29.73R
RHINELANDER    CLOUDY    54  48  80 NE6       29.74R
EAGLE RIVER    CLOUDY    52  46  79 NE3       29.73S
LAND O LAKES   CLOUDY    54  46  76 CALM      29.76R
PHILLIPS       CLOUDY    53  47  80 NE6       29.73R
TOMAHAWK       CLOUDY    53  47  79 CALM      29.73R
MEDFORD        CLOUDY    53  47  80 NE5       29.71R
MERRILL        CLOUDY    54  49  84 NE3       29.72R
$$

WIZ029-030-035-036-043>047-250200-
CENTRAL WISCONSIN

CITY           SKY/WX    TMP DP  RH WIND       PRES   REMARKS
WAUSAU         CLOUDY    54  49  83 E5        29.70R
MOSINEE        CLOUDY    54  50  87 E5        29.72R
MARSHFIELD     CLOUDY    54  49  83 E3        29.70R
STEVENS POINT  CLOUDY    52  49  90 NE8       29.71S
WAUPACA        CLOUDY    55  51  85 N7        29.70S
WAUTOMA        CLOUDY    54  50  86 NE8       29.70S
WISC RAPIDS    PTCLDY    53  49  86 E6        29.71S
CAMP DOUGLAS   CLOUDY    55  52  88 NE5       29.69S
$$

WIZ011>013-019>022-031-037>040-048>050-250200-
NORTHEAST WISCONSIN

CITY           SKY/WX    TMP DP  RH WIND       PRES   REMARKS
ANTIGO         CLOUDY    52  49  90 NE9       29.72S
SHAWANO        CLOUDY    56  51  84 NE6       29.70F
OCONTO         CLOUDY    52  49  87 NE6       29.70R
STURGEON BAY   CLOUDY    52  49  89 NE12      29.69S
GREEN BAY      CLOUDY    53  52  96 N12       29.68S
MANITOWOC      CLOUDY    53  49  86 N10       29.66S
APPLETON       NOT AVBL
CLINTONVILLE   CLOUDY    54  50  87 NE8G17    29.70S
OSHKOSH        CLOUDY    54  50  86 N12       29.66S
$$

WIZ032>034-041-042-053>061-250200-
SOUTHWEST WISCONSIN

CITY           SKY/WX    TMP DP  RH WIND       PRES   REMARKS
LA CROSSE      CLOUDY    60  50  69 E6        29.69R
SPARTA         CLOUDY    55  52  89 CALM      29.70S
VIROQUA        CLOUDY    55  51  87 MISG      29.68S
BOSCOBEL       CLOUDY    59  51  75 VRB3      29.67S
PRAIRIE DU CHI CLOUDY    57  48  72 CALM      29.67S
PLATTEVILLE    CLOUDY    56  54  90 N12       29.66S
$$

WIZ056-057-062-063-064-067-068-250200-
SOUTH CENTRAL WISCONSIN

CITY           SKY/WX    TMP DP  RH WIND       PRES   REMARKS
REEDSBURG      CLOUDY    54  52  94 N8        29.68R
BARABOO/DELLS  CLOUDY    54  49  83 NE6       29.68R
LONE ROCK      CLOUDY    57  50  77 NE7       29.67R
MINERAL POINT  CLOUDY    55  54  94 N10       29.66S
MADISON        MOCLDY    54  51  90 N9        29.65R
MIDDLETON      CLOUDY    55  52  88 N13G20    29.66S
WATERTOWN      CLOUDY    54  52  94 N9G16     29.64R
MONROE         CLOUDY    54  50  87 N9        29.63S
JANESVILLE     CLOUDY    57  55  94 N9        29.62R
$$

WIZ051-052-058>065-066-070>072-250200-
SOUTHEAST WISCONSIN

CITY           SKY/WX    TMP DP  RH WIND       PRES   REMARKS
MILWAUKEE      MOCLDY    54  50  86 N17       29.61R
WAUKESHA       CLOUDY    55  48  76 N9        29.63R
MILWAUKEE/TIMM MOCLDY    57  48  72 N16       29.61S
RACINE         CLOUDY    51  47  86 N18G32    29.61S
KENOSHA        MOCLDY    57  49  74 N17G25    29.58F
FOND DU LAC    CLOUDY    54  49  83 N15       29.66S
SHEBOYGAN      CLOUDY    55  52  89 N10       29.64R
WEST BEND      CLOUDY    54  52  94 N8        29.63S
JUNEAU         CLOUDY    52  49  89 N12G17    29.66R
$$

LSZ147-162-250200-
LAKE SUPERIOR

STATION/POSITION TIME  TEMP    WIND        PRES    WAVE
                       AIR SEA DIR/SP/G            HT/PER
                 (UTC) (F)     (DEG/KT/KT) (MB)    (FT/S)
$$

LMZ867-665-643>646-250200-
LAKE MICHIGAN

STATION/POSITION TIME  TEMP    WIND        PRES    WAVE
                       AIR SEA DIR/SP/G            HT/PER
                 (UTC) (F)     (DEG/KT/KT) (MB)    (FT/S)
$$

TC  - TEMPERATURE IN CELSIUS
VSB - VISIBILITY IN STATUTE MILES
WCI - WIND CHILL INDEX
HX  - HEAT INDEX





USA.gov is the U.S. government's official web portal to all federal, state and local government web resources and services.